STARLINK-1046, 44751

Orbit data source: Space-Track

STARLINK-1046, 44751 is a payload satellite owned by SpaceX/Seattle (US) in LEO that was launched on Mon, 11 Nov 2019 UTC via an FALCON 9 launch vehicle from the Air Force Eastern Test Range (AFETR). Payload-class satellites include a variety of spacecraft equipped with specific instruments for various scientific and technological missions. These include communications satellites like Starlink; space stations such as the ISS; scientific satellites like the Hubble; Earth observation satellites from companies like Planet Labs, Umbra, and HawkEye 360; GPS; miniature CubeSats for education and research; and military/defense satellites.

Loading next visibility...
Identifier
44751, 2019-074AQ
Orbit
LEO
Country
Flag of USUS
Related business
Manufacturer
SpaceX/Seattle
Mission
Partially operational Commercial Communications
Bus & Motor
STARLINK, Unknown motor
Mass
260 kg wet, ~248 kg dry
Launch date (UTC)
2019-11-11 (7 years ago)
Launch vehicle
FALCON 9
Launch site
Air Force Eastern Test Range (AFETR)
Object type
Payload
Rocket body
Debris
Shape & HBR
Box + 1 Pan, 10.1 m
Radar Cross Section
13.562 m², Large (>1 m²)

Expand to show TLE details & history
Last TLE update: 11 hours ago

TLE from 11 hours ago
0 STARLINK-1046
1 44751U 19074AQ  26168.04717056  .00078920  00000-0  11071-2 0  9993
2 44751  53.0476  94.1937 0006794  91.9350 268.2439 15.56053782363822
Epoch: 2026-06-17T01:07Z
TLE epoch observation values (Epoch: 2026-06-17T01:07:55.536Z)
Latitude
0.00001°
Longitude
171.90185°
Altitude
400.133 km
Speed
7.672 km/s
True Right ascension
06h 16m 46s
True Declination
0° 00' 00"
Sunlit
Object was in daylight at epoch
Visualization orbit readout
Latitude
Unknown
Longitude
Unknown
Altitude
Unknown
Speed
Unknown
Apparent Right ascension
Unknown
Apparent Declination
Unknown
Sunlit
N/A
Visualization observer readout
Local Sidereal Time
22:44:09
Azimuth
Unknown
Elevation
Unknown
Doppler factor
Unknown
Orbital elements
Apogee altitude
403.973 km
Perigee altitude
394.764 km
Semi-major axis
6,777.506 km
Eccentricity
0.00068
Inclination
53.0476°
RAAN
94.1937°
Arg. of periapsis
91.935°
True anomaly
268.16609°
Mean anomaly
268.2439°
Eccentric anomaly
268.20499°
Mean motion
3.8899 °/min
Orbital period
92.55 mins
BSTAR
0.0011071
Loading maneuver chart data...
Computing Atmospheric mass density...

Documentation

Showing up to 5 results
|